Weather History for Omak, WA

Change the Weather History Date:

Friday, November 25, 2011

  Actual Average Record
Temperature  
Mean Temperature 39 °F 32 °F  
Max Temperature 48 °F 39 °F 60 °F (1937)
Min Temperature 30 °F 25 °F 9 °F (1961)
Degree Days  
Heating Degree Days 26 33  
Month to date heating degree days 844 702  
Since 1 July heating degree days 1517 1362  
Cooling Degree Days 0 0  
Month to date cooling degree days 0 0  
Year to date cooling degree days 424 665  
Moisture  
Dew Point 22 °F    
Average Humidity 59    
Maximum Humidity 89    
Minimum Humidity 28    
Precipitation  
Precipitation T in 0.06 in 0.49 in (2005)
Month to date precipitation 0.62 1.51  
Year to date precipitation 10.05 12.21  
Sea Level Pressure  
Sea Level Pressure 30.22 in    
Wind  
Wind Speed 6 mph (South)    
Max Wind Speed 15 mph    
Max Gust Speed 20 mph    
Visibility 10 miles    
Events      
T = Trace of Precipitation, MM = Missing Value Source: NWS Daily Summary

Daily Weather History Graph

Daily Weather History Graph

Search for Another Location

Airport:

Trip Planner

Search our weather history database for the weather conditions in past years. The results will help you decide how hot, cold, wet, or windy it might be!

Date:

Astronomy

Nov. 25, 2011 Rise Set
Actual Time 7:20 AM PST 4:09 PM PST
Civil Twilight 6:45 AM PST 4:44 PM PST
Nautical Twilight 6:06 AM PST 5:23 PM PST
Astronomical Twilight 5:28 AM PST 6:00 PM PST
Moon 7:59 AM PST (11/25) 4:36 PM PST (11/25)
Length of Visible Light 9h 59m
Length of Day
8h 48m
New Moon, 0% of the Moon is Illuminated
Nov 25
New Moon
Dec 2
First Quarter
Dec 10
Full
Dec 17
Last Quarter
Dec 24
New

Hourly Weather History & Observations

Time (PST) Temp. Windchill Dew Point Humidity Pressure Visibility Wind Dir Wind Speed Gust Speed Precip Events Conditions
12:53 AM 36.0 °F 32.1 °F 32.0 °F 86% 29.72 in 10.0 mi SSE 4.6 mph - N/A   Mostly Cloudy
2:53 AM 35.1 °F 27.9 °F 30.9 °F 85% 29.80 in 10.0 mi SSE 9.2 mph - 0.00 in   Clear
3:53 AM 36.0 °F 27.5 °F 27.0 °F 70% 29.85 in 10.0 mi SSE 12.7 mph - N/A   Clear
4:53 AM 35.1 °F 28.6 °F 26.1 °F 70% 29.92 in 10.0 mi SSE 8.1 mph - N/A   Clear
5:53 AM 35.1 °F 27.9 °F 26.1 °F 70% 29.97 in 10.0 mi South 9.2 mph - N/A   Clear
6:53 AM 33.1 °F 25.5 °F 25.0 °F 72% 30.03 in 10.0 mi South 9.2 mph 17.3 mph N/A   Clear
7:53 AM 35.1 °F 32.2 °F 25.0 °F 67% 30.09 in 10.0 mi Variable 3.5 mph - N/A   Clear
8:53 AM 37.0 °F 34.5 °F 26.1 °F 65% 30.13 in 10.0 mi WSW 3.5 mph - N/A   Clear
9:53 AM 39.9 °F 34.5 °F 26.1 °F 58% 30.18 in 10.0 mi South 8.1 mph - N/A   Clear
11:53 AM 45.0 °F 43.5 °F 19.0 °F 36% 30.24 in 10.0 mi South 3.5 mph - N/A   Clear
1:53 PM 46.9 °F - 16.0 °F 29% 30.32 in 10.0 mi South 4.6 mph - N/A   Clear
2:53 PM 46.9 °F - 16.0 °F 29% 30.35 in 10.0 mi Variable 4.6 mph - N/A   Clear
3:53 PM 41.0 °F 39.0 °F 15.1 °F 35% 30.39 in 10.0 mi WNW 3.5 mph - N/A   Clear
4:53 PM 33.1 °F 28.7 °F 17.1 °F 52% 30.44 in 10.0 mi ESE 4.6 mph - N/A   Clear
5:53 PM 34.0 °F 29.8 °F 18.0 °F 52% 30.45 in 10.0 mi WSW 4.6 mph - N/A   Clear
6:53 PM 34.0 °F 29.8 °F 18.0 °F 52% 30.47 in 10.0 mi SW 4.6 mph - N/A   Clear
7:53 PM 33.1 °F 26.1 °F 19.9 °F 59% 30.51 in 10.0 mi SSW 8.1 mph - N/A   Clear
8:53 PM 32.0 °F 27.5 °F 21.0 °F 64% 30.51 in 10.0 mi SW 4.6 mph - N/A   Clear
10:53 PM 34.0 °F 28.8 °F 21.9 °F 61% 30.52 in 10.0 mi SSW 5.8 mph - N/A   Mostly Cloudy
11:53 PM 35.1 °F 29.3 °F 23.0 °F 61% 30.53 in 10.0 mi SSW 6.9 mph - N/A   Overcast